Regional Weather Roundup
Issued by NWS

Home | Current Version | Previous Version | Text Only | Print | Product List | Glossary Off
Versions: 1 2 3 4 5 6 7 8 9 10 11 12 13 14 15 16 17 18 19 20 21 22 23 24 25 26 27 28 29 30 31 32 33 34 35 36 37 38 39 40 41 42 43 44 45 46 47 48 49 50

031
ASUS44 KJAN 302310
RWRMS

MISSISSIPPI HOURLY WEATHER ROUNDUP
NATIONAL WEATHER SERVICE JACKSON MS
600 PM CDT TUE SEP 30 2014

NOTE: "FAIR: INDICATES FEW OR NO CLOUDS BELOW 12,000 FEET WITH NO
SIGNIFICANT WEATHER AND/OR OBSTRUCTIONS TO VISIBILITY.

MSZ001>002-007>008-010>013-018>021-025>028-034>036-010000-
NORTHWEST MISSISSIPPI

CITY           SKY/WX    TMP DP  RH WIND       PRES   REMARKS
CLARKSDALE     MOCLDY    84  59  42 E6        29.85S
CLEVELAND      FAIR      86  59  39 E3        29.83F
GREENWOOD      CLEAR     86  62  44 E6        29.84S
GREENVILLE     MOCLDY    88  59  37 NW7       29.83S
GRENADA        FAIR      82  61  47 CALM      29.86S
OLIVE BRANCH   MOCLDY    81  63  54 CALM      29.87S
OXFORD         FAIR      77  68  73 CALM      29.89S
TUNICA         PTCLDY    81  61  50 N5        29.86S
$$

MSZ003>006-009-014>017-022>024-029>033-037>039-010000-
NORTHEAST MISSISSIPPI

CITY           SKY/WX    TMP DP  RH WIND       PRES   REMARKS
COLUMBUS AFB   PTCLDY    83  62  49 SW3       29.87S
CORINTH        FAIR      82  63  51 CALM      29.87S
GOLDN TRIANGLE PTCLDY    82  57  42 E3        29.87R
STARKVILLE     FAIR      82  59  44 SE5       29.87S
TUPELO         PTCLDY    83  56  39 E5        29.87R
$$

MSZ040-058-010000-
CENTRAL MISSISSIPPI

CITY           SKY/WX    TMP DP  RH WIND       PRES   REMARKS
JACKSON INTL   PTCLDY    85  65  51 E3        29.85R
JACKSON HAWKNS PTCLDY    86  60  41 NE6       29.85S
MERIDIAN KEY   CLEAR     83  61  47 NW3       29.86S
MERIDIAN NAS   PTCLDY    85  57  38 N6        29.86S
RAYMOND        FAIR      84  77  79 CALM      29.84S HX  94
VICKSBURG      CLEAR     87  60  40 E3        29.83S
$$

MSZ059>079-010000-
SOUTH MISSISSIPPI

CITY           SKY/WX    TMP DP  RH WIND       PRES   REMARKS
COLUMBIA       FAIR      82  70  65 E7        29.84R
HATTIESBURG    CLEAR     82  68  62 SE6       29.86S
MCCOMB         CLEAR     86  65  49 VRB3      29.84F
NATCHEZ        SUNNY     84  68  58 SE5       29.84S
PINE BELT      CLEAR     81  64  57 E3        29.88S
$$

MSZ080>082-010000-
COASTAL MISSISSIPPI

CITY           SKY/WX    TMP DP  RH WIND       PRES   REMARKS
BAY ST LOUIS   PTCLDY    81  70  69 SE6       29.85S
BILOXI         CLEAR     80  73  77 S7        29.85S
PASCAGOULA     CLEAR     81  69  67 NE5       29.85S
GULFPORT       PTCLDY    80  72  76 S7        29.85R
$$



USA.gov is the U.S. government's official web portal to all federal, state and local government web resources and services.